This is the latest recevied weather packets stored in our database for station/object DM3DP. If no packets are shown the sender has not sent any weather packets the latest 10 day(s).
| Time | Temp. | Humidity | Pressure | Rain* | Wind** | Luminosity | Snow |
|---|---|---|---|---|---|---|---|
| 1777717924 | 23.89° C | 45% | 1017 hPa | 0 mm | - | 607 W/m² | - |
| 1777717593 | 23.89° C | 48% | 1017.1 hPa | 0 mm | - | 679 W/m² | - |
| 1777717263 | 23.89° C | 48% | 1017.2 hPa | 0 mm | - | 687 W/m² | - |
| 1777716934 | 23.33° C | 46% | 1017.4 hPa | 0 mm | - | 746 W/m² | - |
| 1777716603 | 23.33° C | 46% | 1017.5 hPa | 0 mm | - | 668 W/m² | - |
| 1777716273 | 23.33° C | 48% | 1017.6 hPa | 0 mm | - | 697 W/m² | - |
| 1777715944 | 22.78° C | 46% | 1017.6 hPa | 0 mm | - | 633 W/m² | - |
| 1777715613 | 22.78° C | 46% | 1017.6 hPa | 0 mm | - | 570 W/m² | - |
| 1777715283 | 22.78° C | 46% | 1017.6 hPa | 0 mm | - | 584 W/m² | - |
| 1777714953 | 22.78° C | 45% | 1017.7 hPa | 0 mm | - | 702 W/m² | - |
| 1777714623 | 22.22° C | 46% | 1017.8 hPa | 0 mm | - | 652 W/m² | - |
| 1777714293 | 22.22° C | 46% | 1017.8 hPa | 0 mm | - | 686 W/m² | - |
| 1777713963 | 22.22° C | 47% | 1017.8 hPa | 0 mm | - | 749 W/m² | - |
| 1777713634 | 21.67° C | 50% | 1018 hPa | 0 mm | - | 796 W/m² | - |
| 1777713303 | 21.67° C | 50% | 1018 hPa | 0 mm | - | 715 W/m² | - |
| 1777712973 | 21.67° C | 49% | 1018 hPa | 0 mm | - | 775 W/m² | - |
| 1777712643 | 21.11° C | 52% | 1018 hPa | 0 mm | - | 720 W/m² | - |
| 1777712313 | 21.11° C | 52% | 1018 hPa | 0 mm | - | 739 W/m² | - |
| 1777711983 | 21.11° C | 52% | 1018 hPa | 0 mm | - | 555 W/m² | - |
| 1777711653 | 20.56° C | 53% | 1018 hPa | 0 mm | - | 646 W/m² | - |
| 1777711324 | 20.56° C | 53% | 1018 hPa | 0 mm | - | 798 W/m² | - |
| 1777710993 | 20.56° C | 53% | 1017.7 hPa | 0 mm | - | 696 W/m² | - |
| 1777710663 | 20° C | 54% | 1017.7 hPa | 0 mm | - | 677 W/m² | - |
| 1777710333 | 19.44° C | 55% | 1018 hPa | 0 mm | - | 627 W/m² | - |
| 1777710003 | 18.89° C | 57% | 1018.1 hPa | 0 mm | - | 570 W/m² | - |
* Rain latest hour (hover to see other rain measurements)
** Current wind speed in m/s (hover to see current wind gust speed)